Weather History for KAPN - April, 2014

Change the Weather History Date:

Thursday, April 17, 2014

  Actual Average Record
Temperature  
Mean Temperature 41 °F 42 °F  
Max Temperature 49 °F 53 °F 85 °F (1958)
Min Temperature 33 °F 32 °F 10 °F (1949)
Degree Days  
Heating Degree Days 24 23  
Month to date heating degree days 479 443  
Since 1 July heating degree days 8366 7299  
Cooling Degree Days 0 0  
Month to date cooling degree days 0 0  
Year to date cooling degree days 0 0  
Moisture  
Dew Point 28 °F    
Average Humidity 66    
Maximum Humidity 82    
Minimum Humidity 50    
Precipitation  
Precipitation 0.00 in 0.08 in 0.74 in (1939)
Month to date precipitation 3.22 1.38  
Year to date precipitation 6.92 6.22  
Snow  
Snow 0.00 in 0.20 in 3.90 in (1984)
Month to date snowfall 1.2 4.5  
Since 1 July snowfall 64.0 82.8  
Snow Depth 0.00 in    
Sea Level Pressure  
Sea Level Pressure 30.33 in    
Wind  
Wind Speed 12 mph (SE)    
Max Wind Speed 23 mph    
Max Gust Speed 31 mph    
Visibility 10 miles    
Events      
T = Trace of Precipitation, MM = Missing Value Source: NWS Daily Summary

Daily Weather History Graph

Daily Weather History Graph

Search for Another Location

Airport or City:

Trip Planner

Search our weather history database for the weather conditions in past years. The results will help you decide how hot, cold, wet, or windy it might be!

Date:

Astronomy

Apr. 17, 2014 Rise Set
Actual Time 6:45 AM EDT 8:22 PM EDT
Civil Twilight 6:15 AM EDT 8:53 PM EDT
Nautical Twilight 5:37 AM EDT 9:31 PM EDT
Astronomical Twilight 4:57 AM EDT 10:11 PM EDT
Moon 11:12 PM EDT (4/17) 8:12 AM EDT (4/17)
Length of Visible Light 14h 38m
Length of Day
13h 36m
Waning Gibbous, 94% of the Moon is Illuminated
Apr 17
Waning Gibbous
Apr 22
Last Quarter
Apr 29
New
May 6
First Quarter
May 14
Full

Hourly Weather History & Observations

Time (EDT) Temp. Windchill Dew Point Humidity Pressure Visibility Wind Dir Wind Speed Gust Speed Precip Events Conditions
12:54 AM 33.1 °F 24.4 °F 24.1 °F 70% 30.42 in 10.0 mi SE 11.5 mph - N/A   Overcast
1:54 AM 34.0 °F 25.5 °F 24.1 °F 67% 30.42 in 10.0 mi SE 11.5 mph - N/A   Overcast
2:54 AM 34.0 °F 24.6 °F 24.1 °F 67% 30.42 in 10.0 mi SSE 13.8 mph - N/A   Overcast
3:54 AM 34.0 °F 26.0 °F 24.1 °F 67% 30.43 in 10.0 mi SE 10.4 mph - N/A   Overcast
4:54 AM 34.0 °F 26.0 °F 25.0 °F 70% 30.43 in 10.0 mi SE 10.4 mph - N/A   Overcast
5:54 AM 33.1 °F 24.4 °F 25.0 °F 72% 30.43 in 10.0 mi SE 11.5 mph - N/A   Overcast
6:54 AM 33.1 °F 24.4 °F 27.0 °F 78% 30.43 in 10.0 mi ESE 11.5 mph - N/A   Overcast
7:54 AM 33.1 °F 22.6 °F 27.0 °F 78% 30.42 in 10.0 mi ESE 16.1 mph 26.5 mph N/A   Mostly Cloudy
8:54 AM 34.0 °F 22.7 °F 26.1 °F 73% 30.42 in 10.0 mi ESE 19.6 mph 25.3 mph N/A   Clear
9:54 AM 36.0 °F 27.1 °F 26.1 °F 67% 30.42 in 10.0 mi SE 13.8 mph 25.3 mph N/A   Partly Cloudy
10:54 AM 39.9 °F 31.8 °F 27.0 °F 60% 30.38 in 10.0 mi SE 15.0 mph 23.0 mph N/A   Mostly Cloudy
11:54 AM 39.9 °F 30.2 °F 26.1 °F 58% 30.35 in 10.0 mi ESE 20.7 mph 31.1 mph N/A   Clear
12:54 PM 41.0 °F 32.5 °F 28.4 °F 61% 30.30 in 10.0 mi ESE 17.3 mph 26.5 mph N/A   Clear
1:54 PM 43.0 °F 34.8 °F 28.9 °F 58% 30.30 in 10.0 mi ESE 18.4 mph - N/A   Scattered Clouds
2:54 PM 44.1 °F 35.9 °F 30.0 °F 58% 30.27 in 10.0 mi SE 19.6 mph 25.3 mph N/A   Overcast
3:54 PM 45.0 °F 37.4 °F 30.0 °F 56% 30.25 in 10.0 mi ESE 18.4 mph 27.6 mph N/A   Overcast
4:54 PM 45.0 °F 37.9 °F 30.9 °F 58% 30.26 in 10.0 mi SE 16.1 mph - N/A   Partly Cloudy
5:54 PM 48.0 °F - 30.9 °F 52% 30.24 in 10.0 mi ESE 10.4 mph - N/A   Clear
6:54 PM 46.0 °F 40.2 °F 30.9 °F 56% 30.23 in 10.0 mi ESE 12.7 mph - N/A   Clear
7:54 PM 42.1 °F 37.1 °F 32.0 °F 67% 30.23 in 10.0 mi ESE 8.1 mph - N/A   Clear
8:54 PM 39.9 °F 35.8 °F 30.9 °F 70% 30.22 in 10.0 mi ESE 5.8 mph - N/A   Clear
9:54 PM 39.0 °F 36.8 °F 30.9 °F 73% 30.25 in 10.0 mi Variable 3.5 mph - N/A   Clear
10:54 PM 37.9 °F - 30.9 °F 76% 30.23 in 10.0 mi Calm Calm - N/A   Clear
11:54 PM 37.9 °F - 32.0 °F 79% 30.24 in 10.0 mi Calm Calm - N/A   Clear